Flag for Thailand Weather past 2 weeks in Phuket, Thailand

Now
81 °F

Partly cloudy.


Feels Like: 84 °F
Forecast: 82 / 85 °F
Wind: 8 mph from Northwest

Location: Phuket Airport

Current Time: Aug 27, 2014 at 10:16:14 PM

Latest Report: Aug 27, 2014 at 9:30 PM


Visibility: 5 mi

Pressure: 29.83 "Hg

Humidity: 70%

Dew point: 70 °F

Location of PhuketLocation

Historic Weather in Phuket — Graph

°F

Phuket temperature yesterday

Maximum temperature yesterday: 86 °F (at 12:00 PM)
Minimum temperature yesterday: 75 °F (at 3:30 AM)
Average temperature yesterday: 78 °F

Past Weeks' High & Low Weather Summary

 TemperatureHumidityPressure
High90 °F (Aug 23, 11:30 AM)94% (Aug 15, 4:30 AM)29.95 "Hg (Aug 15, 4:30 AM)
Low73 °F (Aug 16, 11:00 AM)62% (Aug 13, 11:30 AM)29.74 "Hg (Aug 21, 5:30 PM)
Average81 °F81%29.85 "Hg
* Reported Aug 12 9:00 PM — Aug 27 9:00 PM, Phuket, Weather by CustomWeather, © 2014

Note: Actual official high and low records may vary slightly from our data, if they occured in-between our weather recording intervals... More about our weather records

Advertising

Phuket weather history for previous 24 hours

 ConditionsComfort  
Time TempWeatherWind HumidityBarometerVisibility
9:00 PM
Aug 27
81 °FPartly cloudy.12 mph66%29.83 "Hg5 mi
8:30 PM79 °FPartly cloudy.12 mph70%29.80 "Hg5 mi
8:00 PM79 °FPartly cloudy.12 mph70%29.80 "Hg5 mi
7:30 PM81 °FPartly cloudy.12 mph70%29.80 "Hg5 mi
7:00 PM79 °FPartly cloudy.13 mph74%29.80 "Hg5 mi
6:30 PM79 °FBroken clouds.17 mph74%29.80 "Hg5 mi
6:00 PM79 °FBroken clouds.16 mph79%29.80 "Hg4 mi
5:30 PM79 °FBroken clouds.15 mph74%29.77 "Hg4 mi
5:00 PM79 °FBroken clouds.15 mph70%29.77 "Hg4 mi
4:30 PM81 °FMore clouds than sun.13 mph74%29.77 "Hg4 mi
4:00 PM81 °FMostly cloudy.15 mph66%29.80 "Hg4 mi
3:30 PM79 °FMostly cloudy.16 mph79%29.80 "Hg4 mi
3:00 PM79 °FLight rain. Cloudy.15 mph79%29.80 "Hg4 mi
2:30 PM79 °FLight rain. Cloudy.17 mph79%29.80 "Hg3 mi
2:00 PM79 °FLight rain. Cloudy.13 mph84%29.83 "Hg3 mi
1:30 PM77 °FRain. Cloudy.12 mph89%29.83 "Hg2 mi
1:00 PM77 °FRain. Cloudy.6 mph89%29.83 "Hg3 mi
12:30 PM75 °FRain. Cloudy.10 mph89%29.86 "Hg2 mi
12:00 PM75 °FRain. Cloudy.12 mph89%29.86 "Hg2 mi
11:30 AM75 °FRain. Cloudy.17 mph89%29.86 "Hg1 mi
11:00 AM77 °FHeavy rain. Broken clouds.23 mph89%29.86 "Hg1 mi
10:30 AM84 °FRain. Broken clouds.12 mph70%29.86 "Hg3 mi
9:30 AM82 °FBroken clouds.10 mph74%29.86 "Hg4 mi
9:00 AM79 °FBroken clouds.1 mph89%29.86 "Hg4 mi
8:30 AM79 °FLight rain. Broken clouds.1 mph89%29.86 "Hg4 mi
8:00 AM79 °FLight rain. Broken clouds.12 mph84%29.83 "Hg4 mi
7:30 AM79 °FBroken clouds.16 mph84%29.83 "Hg4 mi
7:00 AM81 °FBroken clouds.8 mph74%29.80 "Hg4 mi
6:30 AM79 °FBroken clouds.10 mph84%29.80 "Hg4 mi
6:00 AM79 °FPartly cloudy.13 mph84%29.80 "Hg4 mi
5:30 AM77 °FRain. Partly cloudy.14 mph89%29.80 "Hg2 mi
5:00 AM79 °FPartly cloudy.12 mph84%29.77 "Hg4 mi
4:30 AM77 °FLight rain. Partly cloudy.17 mph89%29.80 "Hg4 mi
4:00 AM77 °FLight rain. Partly cloudy.17 mph83%29.80 "Hg4 mi
3:30 AM77 °FLight rain. Partly cloudy.16 mph83%29.80 "Hg4 mi
3:00 AM77 °FLight rain. Partly cloudy.18 mph89%29.80 "Hg3 mi
2:30 AM77 °FLight rain. Partly cloudy.17 mph89%29.80 "Hg3 mi
2:00 AM77 °FRain. Partly cloudy.22 mph89%29.80 "Hg2 mi
1:30 AM77 °FRain. Partly cloudy.18 mph89%29.83 "Hg2 mi
1:00 AM75 °FHeavy rain. Partly cloudy.18 mph94%29.86 "Hg1 mi
12:30 AM73 °FHeavy rain. Partly cloudy.15 mph94%29.86 "Hg1 mi
12:00 AM75 °FPartly cloudy.3 mph89%29.86 "Hg6 mi
11:30 PM
Aug 26
75 °FPartly cloudy.6 mph94%29.86 "Hg6 mi
11:00 PM75 °FPartly cloudy.1 mph89%29.86 "Hg6 mi
10:30 PM75 °FPartly cloudy.2 mph89%29.86 "Hg4 mi
10:00 PM75 °FLight rain. Partly cloudy.2 mph89%29.86 "Hg3 mi
Weather by CustomWeather, © 2014

See weather overviewHow to use our weather pages